Flag for Germany Weather past 2 weeks in Georgsmarienhütte, Lower Saxony, Germany

Now
68 °F

Thunderstorms. Broken clouds.


Feels Like: 68 °F
Forecast: 68 / 84 °F
Wind: 5 mph from North

Location: Muenster / Osnabrueck

Current Time: Aug 30, 2015 at 10:45:34 AM

Latest Report: Aug 30, 2015 at 10:20 AM


Visibility: 4 mi

Pressure: 30.04 "Hg

Humidity: 94%

Dew point: 66 °F

Location of GeorgsmarienhütteLocation

Historic Weather in Georgsmarienhütte — Graph

°F

Georgsmarienhütte temperature yesterday

Maximum temperature yesterday: 75 °F (at 4:50 PM)
Minimum temperature yesterday: 50 °F (at 3:20 AM)
Average temperature yesterday: 62 °F

Past Weeks' High & Low Weather Summary

 TemperatureHumidityPressure
High79 °F (Aug 26, 3:20 PM)100% (Aug 15, 10:20 PM)30.27 "Hg (Aug 15, 10:20 PM)
Low50 °F (Aug 19, 6:20 AM)34% (Aug 23, 2:20 PM)29.53 "Hg (Aug 24, 5:20 PM)
Average64 °F79%29.96 "Hg
* Reported Aug 15 9:20 AM — Aug 30 9:20 AM, Georgsmarienhütte, Weather by CustomWeather, © 2015

Note: Actual official high and low records may vary slightly from our data, if they occured in-between our weather recording intervals... More about our weather records

Advertising

Georgsmarienhütte weather history for previous 24 hours

 ConditionsComfort  
Time TempWeatherWind HumidityBarometerVisibility
9:20 AM
Sun, Aug 30
68 °FBroken clouds.3 mph100%30.07 "HgN/A
8:50 AM64 °FBroken clouds.2 mph100%30.07 "HgN/A
8:20 AM63 °FBroken clouds.2 mph100%30.07 "Hg4 mi
7:50 AM63 °FBroken clouds.1 mph100%30.07 "Hg4 mi
7:20 AM63 °FFog.6 mph100%30.07 "Hg3 mi
6:50 AM63 °FThunderstorms. Partly cloudy.3 mph100%30.07 "Hg1 mi
6:20 AM63 °FStrong thunderstorms. Passing clouds.7 mph100%30.07 "Hg1 mi
5:50 AM64 °FThunderstorms. Passing clouds.10 mph83%30.07 "HgN/A
5:20 AM63 °FThundershowers. Partly cloudy.5 mph88%30.04 "HgN/A
4:50 AM63 °FPassing clouds.5 mph88%30.07 "HgN/A
4:20 AM61 °FPassing clouds.3 mph94%30.07 "HgN/A
3:50 AM61 °FPassing clouds.2 mph88%30.07 "HgN/A
3:20 AM61 °FPassing clouds.3 mph88%30.07 "HgN/A
2:50 AM61 °FPassing clouds.2 mph88%30.09 "HgN/A
2:20 AM59 °FPassing clouds.1 mph94%30.09 "HgN/A
1:50 AM59 °FClear.1 mph94%30.09 "Hg10 mi
1:20 AM61 °FClear.1 mph88%30.09 "Hg10 mi
12:50 AM61 °FClear.2 mph88%30.09 "Hg10 mi
12:20 AM63 °FPassing clouds.3 mph83%30.09 "HgN/A
11:20 PM
Sat, Aug 29
63 °FClear.2 mph83%30.12 "Hg10 mi
10:50 PM63 °FPassing clouds.3 mph88%30.12 "HgN/A
10:20 PM64 °FPassing clouds.2 mph83%30.12 "HgN/A
9:50 PM64 °FPassing clouds.3 mph83%30.12 "HgN/A
9:20 PM64 °FPassing clouds.2 mph83%30.12 "HgN/A
8:50 PM66 °FPassing clouds.3 mph78%30.12 "HgN/A
8:20 PM68 °FScattered clouds.3 mph73%30.12 "HgN/A
7:50 PM70 °FScattered clouds.2 mph69%30.12 "HgN/A
7:20 PM73 °FSunny.1 mph61%30.12 "Hg10 mi
6:50 PM73 °FSunny.2 mph57%30.12 "Hg10 mi
6:20 PM73 °FPassing clouds.2 mph57%30.12 "HgN/A
5:50 PM75 °FPassing clouds.3 mph50%30.15 "HgN/A
5:20 PM73 °FPassing clouds.3 mph53%30.15 "HgN/A
4:50 PM75 °FPassing clouds.2 mph47%30.15 "HgN/A
4:20 PM73 °FScattered clouds.3 mph53%30.15 "HgN/A
3:50 PM73 °FScattered clouds.5 mph53%30.15 "HgN/A
3:20 PM73 °FScattered clouds.5 mph53%30.18 "HgN/A
2:50 PM73 °FScattered clouds.2 mph50%30.18 "HgN/A
2:20 PM72 °FScattered clouds.5 mph57%30.18 "HgN/A
1:50 PM72 °FScattered clouds.5 mph57%30.18 "HgN/A
1:20 PM72 °FScattered clouds.5 mph53%30.21 "HgN/A
12:50 PM70 °FScattered clouds.6 mph57%30.21 "HgN/A
11:50 AM68 °FPassing clouds.3 mph69%30.21 "HgN/A
11:20 AM68 °FPassing clouds.5 mph69%30.21 "HgN/A
10:50 AM66 °FPassing clouds.3 mph73%30.21 "HgN/A
Weather by CustomWeather, © 2015

See weather overviewHow to use our weather pages